Regional Weather Roundup
Issued by NWS Wakefield, VA

Home | Current Version | Previous Version | Text Only | Print | Product List | Glossary Off
Versions: 1 2 3 4 5 6 7 8 9 10 11 12 13 14 15 16 17 18 19 20 21 22 23 24 25 26 27 28 29 30 31 32 33 34 35 36 37 38 39 40 41 42 43 44 45 46 47 48 49 50

861
ASUS41 KAKQ 220014
RWRAKQ

REGIONAL WEATHER ROUNDUP
NATIONAL WEATHER SERVICE WAKEFIELD VA
700 PM EST TUE FEB 21 2017

Note: "fair" indicates few or no clouds below 12,000 feet with no
significant weather and/or obstructions to visibility. * = Denotes
station may not report precipitation (e.g., rain,snow,etc.),
thunder or fog.

VAZ042-051-052>054-056-220100-
NORTHERN VIRGINIA

CITY           SKY/WX    TMP DP  RH WIND       PRES   REMARKS
WASH NATIONAL  CLOUDY    51  36  56 SE6       30.18R
DULLES         CLOUDY    49  33  54 SE5       30.15R
FORT BELVOIR   MOCLDY    51  35  55 CALM      30.17R
QUANTICO       CLOUDY    48  40  73 S6        30.18S
FREDERICKSBRG* PTCLDY    51  39  63 E3        30.16R
STAFFORD*      CLEAR     47  37  68 E3        30.20S
WARRENTON      CLOUDY    49  32  52 CALM      30.14S
CULPEPER*      CLOUDY    48  36  64 CALM      30.16S
MANASSAS*      PTCLDY    49  36  61 S8        30.16R
LEESBURG*      PTCLDY    52  37  58 MISG      30.15F
WINCHESTER     CLOUDY    52  34  50 S9        30.10F
FRONT ROYAL*   MOCLDY    54  34  47 S5        30.11R
LURAY*         PTCLDY    54  37  54 S5        30.11S
$$

VAZ048-049-060>072-079>083-220100-
CENTRAL AND SOUTH CENTRAL VIRGINIA

CITY           SKY/WX    TMP DP  RH WIND       PRES   REMARKS
RICHMOND       CLOUDY    51  37  58 SE8       30.17S
CHESTERFIELD*  FAIR      54  27  35 E6        30.19S
PETERSBURG*    CLOUDY    51  37  59 E5        30.18R
HANOVER        MOCLDY    49  35  58 CALM      30.18S
TAPPAHANNOCK*  MOCLDY    48  28  44 E6        30.18F
QUINTON*       FAIR      49  35  59 SE5       30.18S
CHARLOTTSVILLE MOCLDY    56  37  49 S5        30.14R
GORDONSVILLE*  PTCLDY    50  38  63 CALM      30.14S
ORANGE*        MOCLDY    52  36  54 CALM      30.16S
LOUISA*        CLOUDY    52  43  71 SE5       30.14S
BUMPASS*       FAIR      53  35  51 CALM      30.15S
FARMVILLE*     PTCLDY    54  41  60 CALM      30.15R
CREWE*         FAIR      49  38  64 CALM      30.16R
FORT PICKETT*  FAIR      50  30  46 CALM      30.17R
CHASE CITY*    FAIR      50  37  61 CALM      30.16R
CLARKSVILLE*   FAIR      54  36  50 CALM      30.16R
SOUTH HILL*    CLOUDY    50  39  67 CALM      30.22R
LAWRENCEVILLE* FAIR      51  37  59 CALM      30.16R
EMPORIA*       MOCLDY    46  41  81 CALM      30.18R
$$

VAZ088>098-220100-
SOUTHEAST VIRGINIA

CITY           SKY/WX    TMP DP  RH WIND       PRES   REMARKS
NORFOLK        PTCLDY    47  40  76 E3        30.20F
VIRGINIA BEACH CLOUDY    45  38  76 E5        30.19F
NORFOLK NAVAL  MOCLDY    47  39  74 E6        30.21F
WEST POINT*    MOCLDY    47  37  68 E7        30.21F
SALUDA*        FAIR      45  40  82 SE3       30.21S
NEWPORT NEWS   CLOUDY    46  39  76 E8        30.20S
LANGLEY AFB    MOCLDY    47  42  82 SE8       30.20S
FORT EUSTIS    PTCLDY    48  38  67 E7        30.17S
WILLIAMSBURG*  PTCLDY    48  39  71 CALM      30.20F
HR EXEC AP*    FAIR      48  37  66 SE7       30.18F
FRANKLIN*      CLOUDY    52  40  64 E5        30.18S
US460-WAKEFLD  MOCLDY    49  39  68 E3        30.18S
$$

VAZ020-022-025-037-045-220100-
WEST CENTRAL AND SOUTHWEST VIRGINIA

CITY           SKY/WX    TMP DP  RH WIND       PRES   REMARKS
STAUNTON*      CLOUDY    52  34  51 S6        30.14S
WAYNESBORO*    PTCLDY    51  33  50 SE5       30.13R
HOT SPRINGS VA CLOUDY    45  32  61 S8        30.13S
LYNCHBURG      PTCLDY    49  37  63 CALM      30.16R
DANVILLE       MOCLDY    53  40  61 CALM      30.15R
SOUTH BOSTON*  FAIR      55  37  50 E3        30.16R
MARTINSVILLE   CLOUDY    54  38  54 CALM      30.17R
ROANOKE        PTCLDY    55  37  50 E7        30.15R
BLACKSBURG     CLEAR     52  39  61 E3        30.16R
DUBLIN*        PTCLDY    54  40  59 S3        30.13S
MARION*        CLOUDY    57  43  59 NE5       30.12S
HILLSVILLE*    CLOUDY    50  40  68 S8        30.12S
RICHLANDS*     FAIR      58  42  55 S8G16     30.07R
WISE*          CLOUDY    61  41  48 CALM      30.07R
ABINGDON*      CLOUDY    62  43  49 S5        30.07R
$$

MDZ021>025-VAZ099-100-220100-
SOUTHERN MARYLAND AND THE DELMARVA PENINSULA

CITY           SKY/WX    TMP DP  RH WIND       PRES   REMARKS
PATUXENT RIVER CLOUDY    46  41  82 SE7       30.19S
BAY BRIDGE APT CLOUDY    48  36  61 S7        30.19R
LEONARDTOWN    PTCLDY    46  36  66 SE6       30.19F
DOVER          PTCLDY    42  40  94 SE8       30.19R
GEORGETOWN     NOT AVBL
EASTON         MOCLDY    50  36  57 S8        30.22S
CAMBRIDGE      NOT AVBL
SALISBURY      CLOUDY    43  36  76 SE6       30.21S
OCEAN CITY     PTCLDY    43  38  82 VRB3      30.22F
WALLOPS ISLAND CLOUDY    43  38  82 SE6       30.22S
ACCOMACK*      CLOUDY    44  40  83 SE3       30.21F
$$

NCZ012>017-030>032-220100-
NORTH CENTRAL AND EASTERN NORTH CAROLINA

CITY           SKY/WX    TMP DP  RH WIND       PRES   REMARKS
ROANOKE RAPIDS FAIR      55  45  67 CALM      30.16S
RALEIGH        CLOUDY    57  34  41 E5        30.16R
ELIZABETH CITY CLOUDY    48  42  80 E7        30.20F
AHOSKIE*         N/A     54  45  72 SE3       30.18R
EDENTON*       CLOUDY    52  44  75 E7        30.19F
CURRITUCK*     CLOUDY    49  43  80 E3        30.21F
KILL DEVIL HLS NOT AVBL
MANTEO         CLOUDY    49  47  91 E8        30.19F
CAPE HATTERAS  PTCLDY    58  52  80 E5        30.18R
TARBORO*       NOT AVBL
GOLDSBORO      NOT AVBL
WASHINGTON     MOCLDY    56  46  71 E5        30.17S
GREENVILLE     PTCLDY    59  48  67 E7        30.17S
NEW BERN       MOCLDY    56  49  77 E6        30.17F
WILMINGTON     PTCLDY    58  53  84 E6        30.14R
$$

VAZ048-220100-
ELSEWHERE

CITY           SKY/WX    TMP DP  RH WIND       PRES   REMARKS
HARRISBURG PA  CLOUDY    46  33  60 SE5       30.14S
BALTIMORE      CLOUDY    48  30  49 SE5       30.17R
ANNAPOLIS      CLOUDY    48  38  68 S13       30.19R
ANDREWS AFB    MOCLDY    48  35  60 SE8       30.16R
PHILADELPHIA   MOCLDY    46  33  60 S6        30.20S
HENDERSON NC   PTCLDY    53  34  48 CALM      30.16R
GREENSBORO     CLOUDY    56  40  55 E5        30.12F
ROCKY MOUNT    CLOUDY    53  48  83 CALM      30.15S
$$

VAZ100-220100-
MARINE

STATION/POSITION TIME  TEMP    WIND        PRES    WAVE   SWELL
                       AIR SEA DIR/SP/G            HT/PER HT/PER
                 (UTC) (F)     (DEG/KT/KT) (MB)    (FT/S) (FT/S)
CAPE MAY NJ      2348   43 43  130/  9/ 13 1022.8F
LEWES DE         2348   44 43  170/  9/ 12 1023.0F
OCEAN-CITY-INLET 2348   44 43  150/  5/  8 1023.6F
WACHAPREAGUE VA  2348   46 51  110/  5/  7 1023.3R
THOMAS POINT MD  0000   45 43  180/ 11/ 12   N/A
GOOSES REEF MD   2350   45     170/ 10/ 12 1022.7F
COVE POINT MD    2348   45     180/ 12/ 14 1022.8F
SOLOMONS ISLAND  2348   47 44  160/  6/  9   N/A
BISHOPS HEAD MD  2348   46 49  140/ 10/ 11 1022.7F
PINEY POINT MD   2348          150/  8/  9   N/A
POTOMAC MD       2350   44     160/  8/ 10 1021.7F
CAMBRIDGE MD     2348   48 41  170/  5/ 11 1021.6F
LEWISETTA VA     2348   48 47  170/  8/  9 1022.1F
RAPPAHANNOCK LGT 2348          100/  8/  8 1023.5S
YORK RVR RNG VA  2348   47     130/ 10/ 11 1022.0F
YORKTOWN VA      2348   48 46  130/  8/  9 1022.4F
JAMESTOWN VA     2350   49     100/  6/ 10   N/A
DOMINION TERM VA 2348   48      80/  8/ 12 1022.6F
KIPTOPEKE VA     2348      47  100/  6/  8   N/A
CHES BAY BRIDGE  2348   47 46  110/  7/ 10 1022.7F
CAPE HENRY VA    2348   47     100/  7/  9   N/A
WILLOUBY STN VA  2348   47     100/  9/ 10 1023.5F
S CRANEY ISL VA  2348   49     120/  8/ 10 1022.4F
CAPE HENRY BUOY  2342      48                N/A     3/ 6
OFFSHORE WE BUOY 2351      48                N/A     4/ 6
64NM E OF VA BCH 2350   53 53   70/ 12/ 14 1022.2S   4/ 8   3/ 8
DUCK PIER NC     2348   49 49   50/  7/  7 1021.9F
44100 DUCK FRF   2335      49                N/A     4/ 8
44056 DUCK FRF   2330      49                N/A     3/ 8
OREGON INLET NC  2348           10/  5/  6 1022.1S
HATTERAS NC      2348   58 58   70/  5/  8 1021.5S
DIAMOND SHLS NC  2350   63 75  130/ 10/ 14 1021.8R   4/ 8   3/ 8
CAPE LOOKOUT NC  2300   57      30/ 11/ 12 1021.0R
$$




USA.gov is the U.S. government's official web portal to all federal, state and local government web resources and services.